Weather History for Budapest Ferihegy, Hungary

Change the Weather History Date:

Thursday, November 7, 2013

  Actual Average Record
Temperature  
Mean Temperature 53 °F -  
Max Temperature 60 °F 43 °F 66 °F (1997)
Min Temperature 46 °F 31 °F 32 °F (2006)
Degree Days  
Heating Degree Days 12    
Growing Degree Days 3 (Base 50)    
Moisture  
Dew Point 46 °F    
Average Humidity 85    
Maximum Humidity 100    
Minimum Humidity 67    
Precipitation  
Precipitation 0.00 in - - ()
Sea Level Pressure  
Sea Level Pressure 29.95 in    
Wind  
Wind Speed 6 mph ()    
Max Wind Speed 15 mph    
Max Gust Speed -    
Visibility 6.1 miles    
Events Rain    
Averages and records for this station are not official NWS values.
T = Trace of Precipitation, MM = Missing Value Source: Averaged Metar Reports

Daily Weather History Graph

Daily Weather History Graph

Search for Another Location

Airport:

Trip Planner

Search our weather history database for the weather conditions in past years. The results will help you decide how hot, cold, wet, or windy it might be!

Date:

Astronomy

Nov. 07, 2013 Rise Set
Actual Time 6:35 AM CET 4:17 PM CET
Civil Twilight 6:02 AM CET 4:49 PM CET
Nautical Twilight 5:26 AM CET 5:26 PM CET
Astronomical Twilight 4:50 AM CET 6:02 PM CET
Moon 10:33 AM CET (11/7) 8:04 PM CET (11/7)
Length of Visible Light 10h 46m
Length of Day
9h 41m
Waxing Crescent, 20% of the Moon is Illuminated
Nov 7
Waxing Crescent
Nov 10
First Quarter
Nov 17
Full
Nov 25
Last Quarter
Dec 3
New

Hourly Weather History & Observations

Time (CET) Temp. Windchill Dew Point Humidity Pressure Visibility Wind Dir Wind Speed Gust Speed Precip Events Conditions
12:00 AM 46.4 °F 41.5 °F 41.0 °F 81% 29.86 in - West 10.4 mph - N/A   Clear
12:30 AM 46.4 °F 42.4 °F 41.0 °F 81% 29.86 in - West 8.1 mph - N/A   Clear
1:00 AM 46.4 °F 44.3 °F 41.0 °F 81% 29.86 in - West 4.6 mph - N/A   Clear
1:30 AM 46.4 °F - 41.0 °F 81% 29.89 in - Variable 1.2 mph - N/A   Clear
2:00 AM 46.4 °F 43.5 °F 42.8 °F 87% 29.89 in 6.2 mi SW 5.8 mph - N/A   Mostly Cloudy
2:30 AM 48.2 °F - 41.0 °F 76% 29.89 in - WSW 9.2 mph - N/A   Clear
3:00 AM 48.2 °F - 42.8 °F 82% 29.89 in - West 10.4 mph - N/A   Clear
3:30 AM 48.2 °F - 42.8 °F 82% 29.92 in - West 10.4 mph - N/A   Clear
4:00 AM 48.2 °F - 42.8 °F 82% 29.89 in 6.2 mi WSW 9.2 mph - N/A   Mostly Cloudy
4:30 AM 48.2 °F - 42.8 °F 82% 29.89 in 6.2 mi West 4.6 mph - N/A   Overcast
5:00 AM 48.2 °F - 42.8 °F 82% 29.92 in 6.2 mi Calm Calm - N/A   Overcast
5:30 AM 48.2 °F - 42.8 °F 82% 29.92 in 6.2 mi South 4.6 mph - N/A Rain Light Rain
6:00 AM 46.4 °F 44.3 °F 44.6 °F 93% 29.92 in 6.2 mi SSW 4.6 mph - N/A   Light Drizzle
6:30 AM 46.4 °F 42.9 °F 46.4 °F 100% 29.92 in 6.2 mi SSW 6.9 mph - N/A   Overcast
7:00 AM 46.4 °F 44.3 °F 46.4 °F 100% 29.95 in 5.0 mi South 4.6 mph - N/A   Drizzle
7:30 AM 46.4 °F - 46.4 °F 100% 29.95 in 6.2 mi Variable 1.2 mph - N/A   Mostly Cloudy
8:00 AM 46.4 °F 44.3 °F 46.4 °F 100% 29.95 in 6.2 mi SSE 4.6 mph - N/A   Mostly Cloudy
8:30 AM 48.2 °F - 48.2 °F 100% 29.95 in - South 5.8 mph - N/A   Clear
9:00 AM 48.2 °F - 46.4 °F 93% 29.95 in 6.2 mi SSW 11.5 mph - N/A   Mostly Cloudy
9:30 AM 50.0 °F - 46.4 °F 87% 29.95 in 6.2 mi South 6.9 mph - N/A   Mostly Cloudy
10:00 AM 51.8 °F - 48.2 °F 88% 29.95 in 6.2 mi South 5.8 mph - N/A   Mostly Cloudy
10:30 AM 53.6 °F - 46.4 °F 77% 29.95 in - South 6.9 mph - N/A   Clear
11:00 AM 55.4 °F - 46.4 °F 72% 29.95 in - South 8.1 mph - N/A   Clear
11:30 AM 55.4 °F - 46.4 °F 72% 29.95 in - SSW 9.2 mph - N/A   Clear
12:00 PM 55.4 °F - 46.4 °F 72% 29.95 in - SW 15.0 mph - N/A   Clear
12:30 PM 57.2 °F - 46.4 °F 67% 29.95 in - SW 12.7 mph - N/A   Clear
1:00 PM 57.2 °F - 46.4 °F 67% 29.95 in - SW 15.0 mph - N/A   Clear
1:30 PM 59.0 °F - 48.2 °F 67% 29.95 in - SW 13.8 mph - N/A   Clear
2:00 PM 59.0 °F - 50.0 °F 72% 29.95 in - SW 9.2 mph - N/A   Clear
2:30 PM 59.0 °F - 50.0 °F 72% 29.95 in - SW 9.2 mph - N/A   Clear
3:00 PM 59.0 °F - 48.2 °F 67% 29.95 in - SW 11.5 mph - N/A   Clear
3:30 PM 59.0 °F - 50.0 °F 72% 29.95 in - SSW 9.2 mph - N/A   Clear
4:00 PM 60.8 °F - 50.0 °F 68% 29.98 in - SW 10.4 mph - N/A   Clear
4:30 PM 59.0 °F - 50.0 °F 72% 29.98 in - SSW 6.9 mph - N/A   Clear
5:00 PM 55.4 °F - 50.0 °F 82% 29.98 in - SSW 4.6 mph - N/A   Clear
5:30 PM 53.6 °F - 50.0 °F 88% 29.98 in - Calm Calm - N/A   Clear
6:00 PM 51.8 °F - 48.2 °F 88% 30.01 in - Variable 3.5 mph - N/A   Clear
6:30 PM 51.8 °F - 48.2 °F 88% 30.01 in - Variable 2.3 mph - N/A   Clear
7:00 PM 50.0 °F - 48.2 °F 94% 30.01 in - Calm Calm - N/A   Clear
7:30 PM 50.0 °F - 48.2 °F 94% 30.01 in - Variable 1.2 mph - N/A   Clear
8:00 PM 48.2 °F - 48.2 °F 100% 30.01 in - Variable 3.5 mph - N/A   Clear
8:30 PM 50.0 °F - 50.0 °F 100% 30.01 in - Variable 3.5 mph - N/A   Clear
9:00 PM 46.4 °F 44.3 °F 46.4 °F 100% 30.04 in - ESE 4.6 mph - N/A   Clear
9:30 PM 48.2 °F - 48.2 °F 100% 30.01 in - East 4.6 mph - N/A   Clear
10:00 PM 46.4 °F 44.3 °F 46.4 °F 100% 30.04 in - SE 4.6 mph - N/A   Clear
10:30 PM 46.4 °F 45.2 °F 46.4 °F 100% 30.04 in - Variable 3.5 mph - N/A   Clear
11:00 PM 48.2 °F - 48.2 °F 100% 30.04 in - Variable 3.5 mph - N/A   Clear
11:30 PM 46.4 °F 44.3 °F 44.6 °F 93% 30.04 in - East 4.6 mph - N/A   Clear